Printer-friendly version

IAU Minor Planet Center

Minor Planet Center

MPEC 2005-R38 : 2005 RX3

The following Minor Planet Electronic Circular may be linked-to from your own Web pages, but must not otherwise be redistributed electronically.


Read MPEC 2005-R37 Read MPEC 2005-R39


M.P.E.C. 2005-R38                                Issued 2005 Sept. 7, 15:46 UT

     The Minor Planet Electronic Circulars contain information on unusual
         minor planets and routine data on comets.  They are published
   on behalf of Commission 20 of the International Astronomical Union by the
          Minor Planet Center, Smithsonian Astrophysical Observatory,
                          Cambridge, MA 02138, U.S.A.

                  Supported in part by the Brinson Foundation
             Prepared using the Tamkin Foundation Computer Network

                              MPC@CFA.HARVARD.EDU
          URL http://cfa-www.harvard.edu/iau/mpc.html  ISSN 1523-6714

                                   2005 RX3

Observations:
     K05R03X* C2005 09 06.54111 01 20 17.16 -40 13 10.9          20.0 V ER038E12
     K05R03X  C2005 09 06.55446 01 20 20.18 -40 13 47.6          19.1 V ER038E12
     K05R03X  C2005 09 06.56804 01 20 23.17 -40 14 20.4          19.5 V ER038E12
     K05R03X  C2005 09 06.58154 01 20 26.23 -40 14 54.9          19.5 V ER038E12
     K05R03X  C2005 09 06.69339 01 20 50.74 -40 19 33.7          20.1 V ER038E12
     K05R03X  C2005 09 06.70694 01 20 53.73 -40 20 06.5          20.0 V ER038E12
     K05R03X  C2005 09 06.72049 01 20 56.79 -40 20 39.5          19.7 V ER038E12
     K05R03X  C2005 09 06.73390 01 20 59.71 -40 21 11.3          20.0 V ER038E12
     K05R03X  C2005 09 07.52633 01 24 41.72 -40 55 03.1          19.7 V ER038E12
     K05R03X  C2005 09 07.52799 01 24 42.12 -40 55 06.8          19.2 V ER038E12
     K05R03X  C2005 09 07.52966 01 24 42.55 -40 55 12.7          20.0 V ER038E12
     K05R03X  C2005 09 07.53134 01 24 43.09 -40 55 17.1          20.1 V ER038E12

Observer details:
E12 Siding Spring Survey.  Observers G. J. Garradd, R. H. McNaught.  Measurers
    E. C. Beshore, C. M. Casey, E. J. Christensen, G. J. Garradd, A. D. Grauer,
    R. E. Hill, S. M. Larson, R. H. McNaught.  0.5-m Uppsala Schmidt + CCD.

Orbital elements:
2005 RX3
Epoch 2005 Aug. 18.0 TT = JDT 2453600.5                 MPC
M 319.01869              (2000.0)            P               Q
n   0.50770737     Peri.   74.14861     +0.27239052     -0.96218675
a   1.5561820      Node     0.04693     +0.72967866     +0.20640406
e   0.5404409      Incl.   17.24531     +0.62719411     +0.17774707
P   1.94           H   22.5           G   0.15           U   9
Residuals in seconds of arc
050906 E12  0.1+  0.7+    050906 E12  0.3-  0.3+    050907 E12  0.3+  0.5-
050906 E12  0.2+  1.6-    050906 E12  0.2-  0.2+    050907 E12  0.3-  0.7+
050906 E12  0.4-  0.5+    050906 E12  0.6+  0.3-    050907 E12  0.5-  0.3-
050906 E12  0.2+  0.5+    050906 E12  0.1-  0.2-    050907 E12  0.5+  0.2+

Ephemeris:
2005 RX3                 a,e,i = 1.56, 0.54, 17                  q = 0.7152
Date    TT    R. A. (2000) Decl.     Delta      r     Elong.  Phase     V
2005 09 07    01 22.17   -40 32.1    0.121    1.095   133.6    41.8    19.7
2005 09 08    01 27.01   -41 17.3    0.111    1.086   132.6    43.1    19.6
2005 09 09    01 32.82   -42 09.4    0.101    1.077   131.4    44.5    19.4
2005 09 10    01 39.99   -43 10.1    0.0914   1.068   130.0    46.3    19.2
2005 09 11    01 49.08   -44 21.8    0.0818   1.059   128.1    48.4    19.0
2005 09 12    02 01.00   -45 47.5    0.0723   1.050   125.8    51.0    18.8
2005 09 13    02 17.28   -47 30.5    0.0630   1.042   122.7    54.4    18.6
2005 09 14    02 40.63   -49 33.1    0.0539   1.033   118.5    58.8    18.3
2005 09 15    03 16.07   -51 50.7    0.0453   1.024   112.7    65.0    18.1
2005 09 16    04 12.42   -53 50.0    0.0374   1.015   104.2    73.7    18.0
2005 09 17    05 39.63   -53 31.3    0.0308   1.006    91.7    86.5    18.0
2005 09 18    07 27.37   -46 54.4    0.0265   0.998    73.9   104.7    18.5
2005 09 19    08 58.13   -32 51.9    0.0257   0.989    52.4   126.4    19.9
2005 09 20    09 57.53   -17 14.9    0.0286   0.980    33.1   146.0    22.5
2005 09 21    10 34.75   -05 03.3    0.0344   0.972    20.3   159.0    25.7
2005 09 22    10 59.08   +03 19.0    0.0418   0.963    14.6   164.8    28.5
2005 09 23    11 15.87   +09 00.1    0.0503   0.955    14.2   165.1    29.1
2005 09 24    11 28.05   +12 58.3    0.0593   0.946    16.0   163.0    28.4
2005 09 25    11 37.24   +15 50.7    0.0687   0.938    18.2   160.5    27.7
2005 09 26    11 44.41   +17 59.4    0.0783   0.930    20.2   158.1    27.2
2005 09 27    11 50.14   +19 38.0    0.0881   0.921    22.0   155.9    26.8

Kyle E. Smalley              (C) Copyright 2005 MPC           M.P.E.C. 2005-R38

Read MPEC 2005-R37 Read MPEC 2005-R39


Our Web policy. Index to the CBAT/MPC/ICQ pages.


Valid HTML 4.01!